This is the latest recevied weather packets stored in our database for station/object YF9UAG-16. If no packets are shown the sender has not sent any weather packets the latest 10 day(s).
| Time | Temp. | Humidity | Pressure | Rain* | Wind** | Luminosity | Snow |
|---|---|---|---|---|---|---|---|
| 1778051097 | 30.56° C | 56% | 1006 hPa | - | - | 0 W/m² | - |
| 1778050775 | 31.11° C | 57% | 1005 hPa | - | - | 0 W/m² | - |
| 1778050452 | 31.11° C | 52% | 1005 hPa | - | - | 0 W/m² | - |
| 1778050131 | 32.22° C | 53% | 1005 hPa | - | - | 0 W/m² | - |
| 1778049809 | 31.67° C | 47% | 1005 hPa | - | - | 0 W/m² | - |
| 1778049487 | 33.33° C | 46% | 1005 hPa | - | - | 0 W/m² | - |
| 1778049165 | 33.33° C | 45% | 1005 hPa | - | - | 0 W/m² | - |
| 1778048843 | 34.44° C | 40% | 1005 hPa | - | - | 0 W/m² | - |
| 1778048521 | 34.44° C | 35% | 1005 hPa | - | - | 0 W/m² | - |
| 1778048199 | 36.11° C | 33% | 1005 hPa | - | - | 0 W/m² | - |
| 1778047877 | 38.89° C | 29% | 1005 hPa | - | - | 0 W/m² | - |
| 1778047555 | 38.89° C | 28% | 1005 hPa | - | - | 0 W/m² | - |
| 1778047233 | 38.33° C | 29% | 1005 hPa | - | - | 0 W/m² | - |
| 1778046911 | 39.44° C | 28% | 1005 hPa | - | - | 0 W/m² | - |
| 1778046588 | 39.44° C | 28% | 1005 hPa | - | - | 0 W/m² | - |
| 1778046266 | 38.89° C | 29% | 1005 hPa | - | - | 0 W/m² | - |
| 1778045944 | 38.33° C | 30% | 1005 hPa | - | - | 0 W/m² | - |
| 1778045623 | 39.44° C | 29% | 1005 hPa | - | - | 0 W/m² | - |
| 1778045301 | 39.44° C | 29% | 1005 hPa | - | - | 0 W/m² | - |
| 1778044978 | 40° C | 29% | 1005 hPa | - | - | 0 W/m² | - |
| 1778044656 | 38.89° C | 31% | 1006 hPa | - | - | 0 W/m² | - |
| 1778044334 | 38.33° C | 33% | 1006 hPa | - | - | 0 W/m² | - |
| 1778044012 | 37.78° C | 31% | 1006 hPa | - | - | 0 W/m² | - |
| 1778043690 | 37.78° C | 32% | 1006 hPa | - | - | 0 W/m² | - |
| 1778043368 | 37.78° C | 33% | 1006 hPa | - | - | 0 W/m² | - |
* Rain since midnight (hover to see other rain measurements)
** Current wind speed in m/s (hover to see current wind gust speed)